Location: Silent Lake
(44.9206°N, 78.0708°W)
Time: 06:08:31
(UTC-04:00)

Cosmos 1408 - Pass Details

Date: 19 April 2018
Orbit: 473 x 497 km, 82.6° (Epoch: 19 September)

Event Time Altitude Azimuth Distance (km) Brightness Sun altitude
Rises 20:44:00 0° 7° (N) 2,558 6.5 -7.6°
Reaches altitude 10° 20:46:37 10° 27° (NNE) 1,678 5.3 -8.1°
Maximum altitude 20:49:12 18° 71° (ENE) 1,260 4.3 -8.5°
Enters shadow 20:51:20 12° 111° (ESE) 1,560 4.4 -8.8°
